Location: Kielce
(50.8833°N, 20.6167°E)
Time: 04:31:55
(UTC+02:00)

X-37B - Pass Details

Date: 13 March 2021
Orbit: 380 x 394 km, 45.0° (Epoch: 07 April)

Event Time Altitude Azimuth Distance (km) Brightness Sun altitude
Rises 18:21:55 0° 207° (SSW) 2,262 4.8 -7.6°
Reaches altitude 10° 18:25:11 10° 170° (S) 1,415 3.3 -8.1°
Maximum altitude 18:26:12 11° 152° (SSE) 1,351 3.0 -8.2°
Drops below altitude 10° 18:27:12 10° 134° (SE) 1,420 3.0 -8.4°
Enters shadow 18:27:41 - 126° (SE) 1,497 3.0 -8.5°
